スペースウォッチ彗星

C/2007 VO53 ( Spacewatch )

English version
Home page
Total 6,336 html files since Dec. 4, 1995
Updated on August 26, 2008

---------------------------------------------------------------------

・ プロフィール

発見日 2007年11月1日
発見光度 20.6〜20.8等
発見者 Spacewatch survey

・ 軌道要素

Epoch 2010 May 4.0 TT = JDT 2455320.5
T 2010 Apr. 26.46482 TT                                 MPC
q   4.8426497            (2000.0)            P               Q
z  +0.0000303      Peri.   75.02801     +0.08638409     -0.49858210
 +/-0.0000070      Node    59.73677     -0.15556072     -0.86189485
e   0.9998534      Incl.   86.98991     +0.98404200     -0.09248327

・ 星図

・ 光度変化

        m1 = 7.0 + 5 logΔ + 10.0 log r

---------------------------------------------------------------------

軌道要素はM.P.E.C. 2008-Q26に掲載されたものです。
星図はステラナビゲータ Ver.8 (アストロアーツ) で作成したものです。
光度グラフはComet for Windowsで作成したものです。

---------------------------------------------------------------------

Copyright(C) 1995-2008 Seiichi Yoshida (comet@aerith.net). All rights reserved.